When you browse on this site, cookies collect data to enhance your experience and personalize the content and advertising you see.
Visit our Privacy Policy to learn more. By continuing to use the site, you agree to this use of cookies and data.
  • In Österreich
  • Länderverzeichnis
  • Für 7 Tage
  • Wassertemperatur
  • Wetterkarte
  • News
  • Widgets
  • user-avatar
    Anmelden

    Stündliche Wetter Sibaté

    Heute, 23 September, Montag

    Zeit Temperatur Niederschläge Wind Luftdruck Luftfeuchtigkeit
    00:00 +11°C° 0.2 mm 1 m/S 559 mmHg 82%
    01:00 +11°C° 0 mm 1 m/S 559 mmHg 82%
    02:00 +10°C° 0.3 mm 1 m/S 559 mmHg 82%
    03:00 +10°C° 0.3 mm 1 m/S 559 mmHg 82%
    04:00 +10°C° 0.3 mm 1 m/S 559 mmHg 82%
    05:00 +11°C° 0.2 mm 1 m/S 559 mmHg 80%
    06:00 +12°C° 0.2 mm 1 m/S 560 mmHg 79%
    07:00 +12°C° 0.2 mm 0 m/S 561 mmHg 77%
    08:00 +14°C° 0.1 mm 1 m/S 562 mmHg 73%
    09:00 +16°C° 0.1 mm 1 m/S 562 mmHg 69%
    10:00 +18°C° 0.1 mm 1 m/S 563 mmHg 65%
    11:00 +18°C° 0.4 mm 1 m/S 562 mmHg 68%
    12:00 +18°C° 0.4 mm 1 m/S 561 mmHg 71%
    13:00 +18°C° 0.4 mm 1 m/S 560 mmHg 74%
    14:00 +18°C° 0.6 mm 1 m/S 560 mmHg 75%
    15:00 +16°C° 0.6 mm 1 m/S 560 mmHg 76%
    16:00 +16°C° 0.6 mm 1 m/S 559 mmHg 77%
    17:00 +15°C° 0.4 mm 1 m/S 559 mmHg 79%
    18:00 +14°C° 0.4 mm 1 m/S 559 mmHg 81%
    19:00 +13°C° 0.4 mm 1 m/S 559 mmHg 83%
    20:00 +13°C° 0.1 mm 1 m/S 559 mmHg 83%
    21:00 +13°C° 0.1 mm 1 m/S 560 mmHg 82%
    22:00 +13°C° 0.1 mm 1 m/S 560 mmHg 81%
    23:00 +12°C° 0.1 mm 1 m/S 560 mmHg 82%

    Morgen, 24 September, Dienstag

    Zeit Temperatur Niederschläge Wind Luftdruck Luftfeuchtigkeit
    00:00 +11°C° 0.1 mm 0 m/S 559 mmHg 82%
    01:00 +11°C° 0.1 mm 0 m/S 559 mmHg 83%
    02:00 +10°C° 0 mm 0 m/S 559 mmHg 83%
    03:00 +10°C° 0 mm 0 m/S 559 mmHg 84%
    04:00 +10°C° 0 mm 0 m/S 558 mmHg 84%
    05:00 +10°C° 0 mm 0 m/S 559 mmHg 83%
    06:00 +11°C° 0 mm 0 m/S 560 mmHg 82%
    07:00 +12°C° 0 mm 0 m/S 560 mmHg 81%
    08:00 +14°C° 0.2 mm 1 m/S 561 mmHg 79%
    09:00 +15°C° 0.2 mm 1 m/S 562 mmHg 77%
    10:00 +16°C° 0.2 mm 2 m/S 563 mmHg 74%
    11:00 +16°C° 1 mm 2 m/S 562 mmHg 77%
    12:00 +16°C° 1 mm 1 m/S 561 mmHg 79%
    13:00 +15°C° 1 mm 1 m/S 560 mmHg 82%
    14:00 +15°C° 1 mm 1 m/S 560 mmHg 81%
    15:00 +15°C° 1 mm 1 m/S 559 mmHg 80%
    16:00 +15°C° 1 mm 1 m/S 559 mmHg 79%
    17:00 +14°C° 0.2 mm 1 m/S 559 mmHg 81%
    18:00 +13°C° 0.2 mm 1 m/S 559 mmHg 84%
    19:00 +12°C° 0.2 mm 1 m/S 559 mmHg 86%
    20:00 +12°C° 0.1 mm 1 m/S 559 mmHg 85%
    21:00 +12°C° 0.1 mm 1 m/S 560 mmHg 83%
    22:00 +12°C° 0.1 mm 1 m/S 560 mmHg 82%
    23:00 +12°C° 0.1 mm 1 m/S 560 mmHg 83%

    übermorgen, 25 September, Mittwoch

    Zeit Temperatur Niederschläge Wind Luftdruck Luftfeuchtigkeit
    00:00 +12°C° 0.1 mm 1 m/S 559 mmHg 84%
    01:00 +11°C° 0.1 mm 0 m/S 559 mmHg 86%
    02:00 +11°C° 0.1 mm 0 m/S 559 mmHg 86%
    03:00 +11°C° 0.1 mm 0 m/S 559 mmHg 86%
    04:00 +11°C° 0.1 mm 0 m/S 559 mmHg 86%
    05:00 +11°C° 0.1 mm 0 m/S 560 mmHg 85%
    06:00 +12°C° 0.1 mm 0 m/S 560 mmHg 85%
    07:00 +13°C° 0.1 mm 1 m/S 561 mmHg 85%
    08:00 +14°C° 0.3 mm 1 m/S 561 mmHg 82%
    09:00 +15°C° 0.3 mm 1 m/S 562 mmHg 79%
    10:00 +16°C° 0.3 mm 1 m/S 563 mmHg 76%
    11:00 +16°C° 1.1 mm 1 m/S 562 mmHg 77%
    12:00 +18°C° 1.1 mm 1 m/S 561 mmHg 77%
    13:00 +18°C° 1.1 mm 1 m/S 560 mmHg 78%
    14:00 +18°C° 1.2 mm 1 m/S 560 mmHg 78%
    15:00 +18°C° 1.2 mm 1 m/S 560 mmHg 79%
    16:00 +18°C° 1.2 mm 1 m/S 559 mmHg 79%
    17:00 +15°C° 1.1 mm 1 m/S 559 mmHg 83%
    18:00 +14°C° 1.1 mm 1 m/S 559 mmHg 87%
    19:00 +13°C° 1.1 mm 1 m/S 559 mmHg 90%
    20:00 +12°C° 0.1 mm 1 m/S 559 mmHg 89%
    21:00 +12°C° 0.1 mm 1 m/S 559 mmHg 88%
    22:00 +11°C° 0.1 mm 1 m/S 560 mmHg 86%
    23:00 +11°C° 0 mm 1 m/S 559 mmHg 86%

    26 September, Donnerstag

    Zeit Temperatur Niederschläge Wind Luftdruck Luftfeuchtigkeit
    00:00 +11°C° 0 mm 1 m/S 559 mmHg 86%
    01:00 +10°C° 0 mm 0 m/S 559 mmHg 86%
    02:00 +10°C° 0 mm 0 m/S 558 mmHg 86%
    03:00 +10°C° 0 mm 0 m/S 558 mmHg 85%
    04:00 +11°C° 0 mm 1 m/S 558 mmHg 85%
    05:00 +11°C° 0 mm 1 m/S 559 mmHg 84%
    06:00 +12°C° 0 mm 1 m/S 560 mmHg 83%
    07:00 +13°C° 0 mm 1 m/S 560 mmHg 82%
    08:00 +14°C° 0.1 mm 1 m/S 561 mmHg 79%
    09:00 +15°C° 0.1 mm 1 m/S 562 mmHg 75%
    10:00 +18°C° 0.1 mm 1 m/S 563 mmHg 71%
    11:00 +18°C° 0.8 mm 1 m/S 562 mmHg 72%
    12:00 +18°C° 0.8 mm 1 m/S 561 mmHg 73%
    13:00 +18°C° 0.8 mm 1 m/S 561 mmHg 74%
    14:00 +18°C° 0.9 mm 1 m/S 560 mmHg 74%
    15:00 +18°C° 0.9 mm 1 m/S 560 mmHg 74%
    16:00 +18°C° 0.9 mm 1 m/S 559 mmHg 74%
    17:00 +15°C° 0.8 mm 1 m/S 559 mmHg 78%
    18:00 +14°C° 0.8 mm 1 m/S 559 mmHg 81%
    19:00 +13°C° 0.8 mm 2 m/S 558 mmHg 85%
    20:00 +12°C° 0.4 mm 2 m/S 558 mmHg 84%
    21:00 +12°C° 0.4 mm 2 m/S 559 mmHg 84%
    22:00 +10°C° 0.4 mm 2 m/S 559 mmHg 83%
    23:00 +11°C° 0.1 mm 1 m/S 558 mmHg 83%

    27 September, Freitag

    Zeit Temperatur Niederschläge Wind Luftdruck Luftfeuchtigkeit
    00:00 +11°C° 0.1 mm 1 m/S 558 mmHg 83%
    01:00 +11°C° 0.1 mm 1 m/S 558 mmHg 82%
    02:00 +11°C° 0 mm 1 m/S 558 mmHg 82%
    03:00 +10°C° 0 mm 1 m/S 558 mmHg 83%
    04:00 +10°C° 0 mm 1 m/S 557 mmHg 83%
    05:00 +11°C° 0 mm 1 m/S 558 mmHg 81%
    06:00 +12°C° 0 mm 1 m/S 559 mmHg 80%
    07:00 +12°C° 0 mm 0 m/S 560 mmHg 78%
    08:00 +14°C° 0.1 mm 1 m/S 561 mmHg 75%
    09:00 +16°C° 0.1 mm 1 m/S 562 mmHg 71%
    10:00 +18°C° 0.1 mm 1 m/S 563 mmHg 67%
    11:00 +18°C° 0.7 mm 1 m/S 562 mmHg 69%
    12:00 +18°C° 0.7 mm 1 m/S 561 mmHg 71%
    13:00 +18°C° 0.7 mm 1 m/S 560 mmHg 73%
    14:00 +18°C° 0.8 mm 1 m/S 560 mmHg 75%
    15:00 +18°C° 0.8 mm 1 m/S 559 mmHg 76%
    16:00 +16°C° 0.8 mm 1 m/S 559 mmHg 77%
    17:00 +15°C° 0.5 mm 1 m/S 559 mmHg 81%
    18:00 +14°C° 0.5 mm 1 m/S 558 mmHg 84%
    19:00 +12°C° 0.5 mm 1 m/S 558 mmHg 87%
    20:00 +12°C° 0 mm 1 m/S 558 mmHg 85%
    21:00 +12°C° 0 mm 1 m/S 558 mmHg 82%
    22:00 +12°C° 0 mm 1 m/S 559 mmHg 80%
    23:00 +11°C° 0.1 mm 1 m/S 558 mmHg 80%

    28 September, Samstag

    Zeit Temperatur Niederschläge Wind Luftdruck Luftfeuchtigkeit
    00:00 +11°C° 0.1 mm 1 m/S 558 mmHg 81%
    01:00 +11°C° 0.1 mm 1 m/S 558 mmHg 82%
    02:00 +10°C° 0 mm 1 m/S 558 mmHg 83%
    03:00 +10°C° 0 mm 1 m/S 557 mmHg 83%
    04:00 +10°C° 0 mm 1 m/S 557 mmHg 84%
    05:00 +11°C° 0 mm 1 m/S 558 mmHg 82%
    06:00 +12°C° 0 mm 1 m/S 559 mmHg 79%
    07:00 +12°C° 0 mm 0 m/S 560 mmHg 77%
    08:00 +15°C° 0.1 mm 1 m/S 561 mmHg 72%
    09:00 +16°C° 0.1 mm 1 m/S 562 mmHg 67%
    10:00 +18°C° 0.1 mm 2 m/S 563 mmHg 62%
    11:00 +18°C° 0.4 mm 2 m/S 562 mmHg 64%
    12:00 +18°C° 0.4 mm 2 m/S 561 mmHg 66%
    13:00 +18°C° 0.4 mm 2 m/S 560 mmHg 68%
    14:00 +18°C° 1 mm 2 m/S 560 mmHg 72%
    15:00 +18°C° 1 mm 1 m/S 559 mmHg 76%
    16:00 +18°C° 1 mm 1 m/S 558 mmHg 80%
    17:00 +15°C° 1.3 mm 1 m/S 558 mmHg 82%
    18:00 +14°C° 1.3 mm 1 m/S 558 mmHg 85%
    19:00 +13°C° 1.3 mm 1 m/S 558 mmHg 88%
    20:00 +12°C° 0.6 mm 1 m/S 558 mmHg 87%
    21:00 +12°C° 0.6 mm 1 m/S 558 mmHg 87%
    22:00 +11°C° 0.6 mm 1 m/S 558 mmHg 87%
    23:00 +11°C° 0.1 mm 1 m/S 558 mmHg 87%
    Mehr zeigen